TimeCST,TemperatureF,Dew PointF,Humidity,Sea Level PressureIn,VisibilityMPH,Wind Direction,Wind SpeedMPH,Gust SpeedMPH,PrecipitationIn,Events,Conditions,WindDirDegrees,DateUTC
12:54 AM,6.1,1.9,83,30.42,10.0,WNW,3.5,-,N/A,,Overcast,300,2013-02-21 06:54:00
1:54 AM,7.0,1.9,80,30.43,10.0,NNW,5.8,-,N/A,,Overcast,340,2013-02-21 07:54:00
2:54 AM,7.0,1.9,80,30.43,10.0,NNW,3.5,-,N/A,,Overcast,340,2013-02-21 08:54:00
3:54 AM,9.0,5.0,84,30.43,10.0,NW,6.9,-,N/A,,Overcast,320,2013-02-21 09:54:00
4:54 AM,10.9,7.0,84,30.45,10.0,NW,10.4,-,N/A,,Overcast,310,2013-02-21 10:54:00
5:54 AM,12.0,8.1,84,30.49,10.0,NW,8.1,-,N/A,,Overcast,310,2013-02-21 11:54:00
6:54 AM,12.9,8.1,81,30.50,9.0,NNW,6.9,-,N/A,,Overcast,330,2013-02-21 12:54:00
7:54 AM,15.1,10.0,80,30.45,10.0,North,12.7,-,N/A,,Overcast,10,2013-02-21 13:54:00
8:54 AM,17.1,12.0,81,30.39,10.0,North,11.5,18.4,N/A,,Overcast,10,2013-02-21 14:54:00
9:54 AM,19.0,12.9,77,30.47,10.0,NNW,5.8,-,N/A,,Overcast,340,2013-02-21 15:54:00
10:54 AM,19.9,14.0,78,30.47,10.0,North,10.4,-,N/A,,Overcast,350,2013-02-21 16:54:00
11:43 AM,21.2,15.8,80,30.38,10.0,North,9.2,-,N/A,,Overcast,360,2013-02-21 17:43:00
11:54 AM,21.9,14.0,72,30.45,10.0,NNE,8.1,-,N/A,,Overcast,20,2013-02-21 17:54:00
12:54 PM,24.1,16.0,71,30.44,10.0,North,10.4,-,N/A,,Overcast,360,2013-02-21 18:54:00
1:54 PM,25.0,15.1,66,30.39,10.0,NNE,9.2,-,N/A,,Scattered Clouds,20,2013-02-21 19:54:00
2:25 PM,24.8,15.8,69,30.31,10.0,North,10.4,-,N/A,,Mostly Cloudy,360,2013-02-21 20:25:00
2:54 PM,25.0,16.0,69,30.39,10.0,NNE,9.2,-,N/A,,Mostly Cloudy,20,2013-02-21 20:54:00
3:54 PM,24.1,16.0,71,30.38,10.0,NNE,9.2,-,N/A,,Overcast,20,2013-02-21 21:54:00
4:54 PM,23.0,17.1,78,30.38,10.0,NE,10.4,-,N/A,,Overcast,40,2013-02-21 22:54:00
5:09 PM,21.2,17.6,86,30.31,10.0,East,10.4,-,N/A,,Overcast,80,2013-02-21 23:09:00
5:54 PM,21.0,17.1,85,30.39,10.0,NNE,9.2,-,N/A,,Overcast,20,2013-02-21 23:54:00
6:54 PM,21.0,17.1,85,30.37,10.0,NE,6.9,-,N/A,,Overcast,40,2013-02-22 00:54:00
7:54 PM,21.0,19.0,92,30.34,10.0,ENE,10.4,-,N/A,,Overcast,60,2013-02-22 01:54:00
8:08 PM,21.2,19.4,93,30.26,10.0,ENE,4.6,-,N/A,,Overcast,60,2013-02-22 02:08:00
8:54 PM,21.0,18.0,88,30.34,10.0,Variable,6.9,-,N/A,,Overcast,0,2013-02-22 02:54:00
9:54 PM,19.0,17.1,92,30.30,10.0,Variable,6.9,-,N/A,,Overcast,0,2013-02-22 03:54:00
10:09 PM,19.4,15.8,86,30.23,10.0,East,8.1,16.1,N/A,,Overcast,90,2013-02-22 04:09:00
10:54 PM,19.0,16.0,88,30.28,10.0,Variable,5.8,-,N/A,,Overcast,0,2013-02-22 04:54:00
11:54 PM,18.0,16.0,92,30.26,10.0,East,5.8,16.1,N/A,,Overcast,90,2013-02-22 05:54:00